#timestamp,LO_Frequency,Hit,StdDev 
1514480415.2,286046999.2,N
1514480435.9,286046999.0,N
1514480455.7,286046996.9,N
1514480475.6,286046996.9,N
1514480495.4,286046995.4,N
1514480515.3,286046994.9,N
1514480535.1,286046995.0,N
1514480536.0,286046995.0,N
1514480555.8,286046995.7,N
1514480575.7,286046997.4,N
1514480595.5,286046998.8,N
1514480615.3,286046999.5,N
1514480635.2,286046997.9,N
1514480655.0,286046997.2,N
1514480655.9,286046997.2,N
1514480675.8,286046997.1,N
1514480695.6,286046997.4,N
1514480715.4,286046999.6,N
1514480735.3,286046996.6,N
1514480755.1,286046998.1,N
1514480775.9,286047002.8,N
1514480795.7,286047002.8,N
1514480815.5,286047001.9,N
1514480835.4,286046999.9,N
1514480855.2,286046998.2,N
1514480875.0,286046999.8,N
1514480876.0,286046999.8,N
1514480895.8,286047000.5,N
1514480915.6,286046998.8,N
1514480935.5,286046998.8,N
1514480955.3,286046996.6,N
1514480975.1,286046995.0,N
1514480995.9,286046997.6,N
1514481015.7,286046995.0,N
1514481035.6,286046997.9,N
1514481055.4,286046996.8,N
1514481075.2,286046997.0,N
1514481095.1,286046998.3,N
1514481096.0,286046998.3,N
1514481115.8,286047000.4,N
1514481135.7,286047001.6,N
1514481155.5,286047002.4,N
1514481175.3,286047002.1,N
1514481195.2,286047004.0,N
1514481215.0,286047004.0,N
1514481215.9,286047004.0,N
1514481235.7,286047004.3,N
1514481255.6,286047003.2,N
1514481275.4,286047005.5,N
1514481295.3,286047007.5,N
1514481315.1,286047004.8,N
1514481335.8,286047008.3,N
1514481355.7,286047009.1,N
1514481375.5,286047006.2,N
1514481395.4,286047004.9,N
1514481415.2,286047007.4,N
1514481435.0,286047006.2,N
1514481435.9,286047006.2,N
1514481455.8,286047007.4,N
1514481475.6,286047005.0,N
1514481495.4,286047005.4,N
1514481515.3,286047005.2,N
1514481535.1,286047003.7,N
1514481555.9,286047000.1,N
1514481575.7,286046999.9,N
1514481595.5,286046998.4,N
1514481615.4,286046998.5,N
1514481635.2,286046998.3,N
1514481655.0,286046997.0,N
1514481655.9,286046997.0,N
1514481675.8,286046996.7,N
1514481695.6,286046999.2,N
1514481715.5,286046999.6,N
1514481735.3,286046999.9,N
1514481755.1,286046999.8,N
1514481775.9,286047000.3,N
1514481795.7,286047002.4,N
1514481815.6,286047000.0,N
1514481835.4,286046998.5,N
1514481855.2,286046999.7,N
1514481875.1,286046998.4,N
1514481876.0,286046998.4,N
1514481895.8,286047001.1,N
1514481915.6,286047002.4,N
1514481935.5,286047000.3,N
1514481955.3,286047001.1,N
1514481975.2,286047000.9,N
1514481995.9,286047000.9,N
1514482015.7,286047002.5,N
1514482035.6,286046999.9,N
1514482055.4,286047000.8,N
1514482075.2,286047000.9,N
1514482095.1,286046998.2,N
1514482096.0,286046998.2,N
1514482115.8,286047000.5,N
1514482135.7,286047002.1,N
1514482155.5,286047000.0,N
1514482175.3,286047000.6,N
1514482195.2,286047000.7,N
1514482215.0,286047000.1,N
1514482215.9,286047000.1,N
1514482235.8,286046998.4,N
1514482255.6,286047001.2,N
1514482275.4,286046998.1,N
1514482295.3,286046998.3,N
1514482315.1,286047001.0,N
1514482335.8,286047001.2,N
1514482355.7,286046998.5,N
1514482375.5,286046998.3,N
1514482395.4,286047001.1,N
1514482415.2,286046998.8,N
1514482435.0,286046998.7,N
1514482435.9,286046998.7,N
1514482455.8,286046997.0,N
1514482475.6,286046997.1,N
1514482495.5,286046999.4,N
1514482515.3,286046998.8,N
1514482535.1,286046998.1,N
1514482555.9,286047002.7,N
1514482575.7,286047002.2,N
1514482595.5,286047004.3,N
1514482615.4,286047005.6,Y
1514482635.2,286047004.4,P
1514482655.1,286047004.1,N
1514482656.0,286047004.1,N
1514482675.8,286047003.8,N
1514482695.6,286047000.1,N
1514482715.5,286047002.8,N
1514482735.3,286047002.2,N
1514482755.2,286047002.3,N
1514482775.9,286047004.1,N
1514482795.7,286047004.3,N
1514482815.6,286047004.1,N
1514482835.4,286047002.5,N
1514482855.2,286047001.8,N
1514482875.1,286047000.0,N
1514482876.0,286047000.0,N
1514482895.8,286047002.7,N
1514482915.7,286047003.6,N
1514482935.5,286047001.4,N
1514482955.3,286047003.8,N
1514482975.2,286047001.6,N
1514482995.0,286047000.0,N
1514482995.9,286047000.0,N
1514483015.8,286046999.8,N
1514483035.6,286046998.6,N
1514483055.4,286046999.5,N
1514483075.3,286046997.0,N
1514483095.1,286046999.0,N
1514483115.8,286047001.1,N
1514483135.7,286047002.8,N
1514483155.5,286047000.0,N
1514483175.4,286047001.0,N
1514483195.2,286046999.5,N
1514483215.0,286046995.1,N
1514483215.9,286046995.1,N
1514483235.8,286046997.9,N
1514483255.6,286047000.6,N
1514483275.5,286046998.2,N
1514483295.3,286046998.6,N
1514483315.1,286047000.0,N
1514483335.9,286046998.9,N
1514483355.7,286047000.0,N
1514483375.5,286046998.5,N
1514483395.4,286046999.8,N
1514483415.2,286047000.1,N
1514483435.1,286047000.0,N
1514483436.0,286047000.0,N
1514483455.8,286047000.8,N
1514483475.6,286046998.6,N
1514483495.5,286046998.2,N
1514483515.3,286047000.4,N
1514483535.1,286047001.5,N
1514483555.9,286047001.7,N
1514483575.7,286047002.4,N
1514483595.6,286047000.5,N
1514483615.4,286047000.1,N
1514483635.2,286047002.8,N
1514483655.1,286046999.8,N
1514483656.0,286046999.8,N
1514483675.8,286046998.9,N
1514483695.7,286046998.2,N
1514483715.5,286047000.6,N
1514483735.3,286047001.5,N
1514483755.2,286047001.6,N
1514483775.0,286047000.1,N
1514483775.9,286047000.1,N
1514483795.8,286047000.4,N
1514483815.6,286047000.5,N
1514483835.4,286047002.2,N
1514483855.3,286047002.0,N
1514483875.1,286047002.0,N
1514483895.8,286047004.3,Y
1514483915.7,286047002.0,P
1514483935.5,286047002.8,P
1514483955.4,286047002.3,N
1514483975.2,286047002.7,Y
1514483995.0,286046999.8,P
1514483995.9,286046999.8,N
